Погода в Кингисеппе

Погода в Кингисеппе : погода сейчас, прогноз погоды и архив. Всё, что Вы хотите узнать о погоде в Кингисеппе!

Поиск расширенной информации на нашем сайте:

Другие новости

Новости СМИ2

Главная страница сайта

Новости сайта

03.07.2017

Напоминаем, что на нашем специализированном сайте Метеоцентр.Азия вы можете получить высокодетализированные автоматические прогнозы погоды по пунктам России, СНГ и мира в авиационном формате (включающие направление и скорость ветра, видимость, явления погоды, количество и форму облачности, нижнюю и верхнюю границу облачности).


Погода в Кингисеппе - сегодня

Время (UTC), дата Ветер
(°,м/с) 
Видим.   Явления Облачность Т
(°С)
Тd
(°С)
f(%) Тe
(°С)
Pmin
(гПа)
dP
(гПа)
Po
(мм)
O2
(г/м3)
Тmin Tmax R s Состояние
почвы
21 08.02.18 160 (Ю) 10 км    10/10 300 м 
[St]
-6.6 -7.2 95 -6  1023.5  766  317           
00 09.02.18 100 (В) 10 км    10/10 270 м 
[St]
-7.1 -7.5 97 -7  1023.4  0.1  766  318           
03 09.02.18 080 (В) 10 км    10/10 300 м 
[St]
-7 -7.5 96 -7  1022.8  -0.6  765  317  -7.1    0.0     
06 09.02.18 330 (СЗ) 4000 м  слаб. ливневой снег  10/10 360 м кучево-дожд. 
[Cb cap]
-7.1 -7.3 98 -7  1022.8  765  317  -7.1    0.0  15  равномерный
сухой снег
100% 
09 09.02.18 320 (СЗ) 4000 м  слаб. ливневой снег  9/3 600 м кучево-дожд., средняя 
[Cb cap|Ac As]
-6.1 -6.9 94 -6  1023.5  0.7  766  316           
12 09.02.18 320 (СЗ) 4000 м  слаб. ливневой снег  10/10 570 м кучево-дожд. 
[Cb cap]
-4.8 -6.3 89 -4  1023.6  0.1  766  315           
15 09.02.18 350 (С) 4000 м  слаб. ливневой снег  10/10 480 м кучево-дожд. 
[Cb cap]
-4.8 -5.9 92 -4  1023.7  0.1  766  315      0.2     
18 09.02.18 350 (С) 10 км  {ливн. осадки}  10/10 400 м 
[St]
-5.5 -6.2 95 -7  1024.2  0.5  766  316    -4.4  0.2     
21 09.02.18 350 (С) 10 км    10/10 420 м 
[St]
-5.8 -6.3 96 -5  1024.3  0.1  766  316           
09 10.02.18 010 (С) 10 км    10/10 570 м 
[St]
-4.8 -5.9 92 -6  1022.4  -0.6  765  314           
03 11.02.18 120 (ЮВ) 4000 м  слаб. ливневой снег  10/10 270 м кучево-дожд. 
[Cb cap]
-5 -5 100 -6  1016.5  -1  760  313  -5    0.0     
09 11.02.18 120 (ЮВ) 4000 м  слаб. снег{ливн. осадки}  10/0 средняя 
[As op]
-4.2 -4.9 95 -5  1015.1  -0.6  759  311           
03 12.02.18 140 (ЮВ) 10 км  в посл. час снег  9/9 660 м 
[Sc]
-4.4 -4.4 100 -6  1012.4  0.3  757  311  -4.4       
21 12.02.18 140 (ЮВ) 10 км    10/10 900 м 
[Sc]
-2.6 -3.6 93 -4  1016.2  0.7  760  310           
03 13.02.18 140 (ЮВ) 4000 м  слаб. ливневой снег  10/10 450 м кучево-дожд. 
[Cb cap]
-1.4 -1.9 96 -3  1016.8  0.5  761  308  -2.6    0.0     
21 13.02.18 130 (ЮВ) 10 км    10/10 450 м 
[St]
-2.2 -2.8 96 -3  1022.6  1.3  765  311           
09 14.02.18 120 (ЮВ) 10 км    10/10 660 м 
[Sc]
-3.4 -4.6 91 -5  1026.9  1.4  768  314           
21 14.02.18 120 (ЮВ) 10 км    10/0 верхняя 
[Ci fib]
-9.2 -10.2 92 -9  1030.6  1.1  771  323           
00 15.02.18 120 (ЮВ) 10 км    10/0 верхняя 
[Ci fib]
-11.5 -11.8 98 -11  1030.9  0.2  771  326           
09 15.02.18 150 (ЮВ) 10 км    4/0 верхняя 
[Ci fib]
-9.4 -11.2 87 -11  1031.9  0.5  772  323           
12 15.02.18 130 (ЮВ) 10 км    9/0 средняя, верхняя 
[Ac trans|Ci fib]
-6.3 -8.7 83 -8  1031.1  -0.7  771  319           
21 15.02.18 130 (ЮВ) 4000 м  слаб. снег  10/0 средняя 
[As op]
-7.1 -7.5 97 -9  1028.3  -1.1  769  319           
21 16.02.18 100 (В) 10 км    10/10 750 м 
[Sc]
-6 -6.8 94 -6  1023.3  -0.7  765  316           
03 17.02.18 070 (В) 4000 м  слаб. ливневой снег  10/10 600 м кучево-дожд. 
[Cb cap]
-5.9 -6.1 99 -6  1021.7  -0.7  764  315  -6.3    0.7     
09 17.02.18 080 (В) 4000 м  слаб. снег  10/0 средняя, верхняя 
[Ac As|Ci fib]
-4.2 -5.1 93 -4  1020.6  -0.6  764  313           
Время (UTC), дата Ветер
(°,м/с) 
Видим.   Явления Облачность Т
(°С)
Тd
(°С)
f(%) Тe
(°С)
Pmin
(гПа)
dP
(гПа)
Po
(мм)
O2
(г/м3)
Тmin Tmax R s Состояние
почвы

Для получения пояснительной информации подведите курсор к названию столбца.

ПОГОДА в Кингисеппе - архив

Всё, что Вы хотите узнать о погоде в Кингисеппе - удобно и подробно!

Выберите нужную дату (начиная с 1 января 2015* года) и нажмите кнопку "Найти".
Будут отображены архивные сводки погоды по пункту Кингисепп, начиная с указанной даты.


Отображать данные в формате CSV (для использования в таблицах Excel)


Внимание! Наш архив погоды предназначен исключительно для личного некоммерческого использования в познавательных целях. Если Вам необходимы официальные справки о состоянии погоды (для производственных, юридических, коммерческих и т.п. целей), обращайтесь в органы Росгидромета.

*Примечание: данная дата относится к архиву по метеостанциям СССР (Россия, СНГ, Балтия).
Архив по метеостанциям Зарубежной Европы и Азии (кроме Китая) хранится 10 дней, по другим регионам земного шара (Китай, Африка, Америка, Австралия, Океания) - 1 день.

Кингисепп - район местоположения метеостанции


Название, широта, долгота, высота метеостанции:
Кингисепп 59.4°ш. 28.6°д. 19 м над ур. моря [Российская Федерация]

Дополнительная информация

В oтличие oт бoльшинства пoгoдных сайтoв мы публикуем пoдрoбную метеoинфoрмацию в детальнoм прoфессиoнальнoм фoрмате.

Характеристики температуры и влажнoсти вoздуха измеряются на высoте 2 м в тени вдали oт зданий и деревьев.
Скoрoсть ветра измеряется на высoте 10 м (на урoвне рoста челoвека скoрoсть ветра ниже в 1.5-2 раза). Если метеoстанция нахoдится в гoрoде или в лесу, тo скoрoсть ветра занижена на 2-4 м/с пo сравнению с oткрытым местoм. Скoрoсть ветра над акватoриями крупных рек и oзёр, а также на вершинах хoлмoв на 2-5 м/с выше, чем в oбычных услoвиях.
Атмoсфернoе давление в разных тoчках местнoсти мoжет значительнo oтличаться oт давления на метеoстанции, в зависимoсти oт услoвий рельефа (при пoдъёме на 10 м давление пoнижается примернo на 1 мм рт.ст.).